Location: ?p Thanh B�nh
(16.5833°N, 107.5333°E)
Time: 04:47:04
(UTC+00:00)

Delta 128 - Pass Details

Date: 29 October 2020
Orbit: 608 x 1216 km, 28.0° (Epoch: 29 November)

Event Time Altitude Azimuth Distance (km) Brightness Sun altitude
Exits shadow 21:02:02 72° 70° (ENE) 635 3.6 -25.5°
Drops below altitude 10° 21:06:13 10° 110° (ESE) 1,978 7.2 -24.5°
Sets 21:08:37 0° 111° (ESE) 2,926 8.3 -23.9°
